contact:dominique.lefevre@mio.osupytheas.fr, maurice.libes@osupytheas.fr, didier.mallarino@osupytheas.fr
Project:EMSO http://www.emso-fr.org/EMSO-France
Depth: 2436.0 m
Title:EMSO Ligure Ouest : Data MII capteur AQUADOPP
Date,Latitude,Longitude,X_East,Y_North,Z_Up,Amplitude_X,Amplitude_Y,Amplitude_Z,Batterie,SoundSpeed,Heading,Pitch,Roll,Pressure,TIS,Speed,Direction
, degrees North, degrees East, m.s-1, m.s-1,m.s-1, 1, 1, 1, Volt, m.s-1, degree, degree, degree, dbar, degree_C, m.s-1, degree
2021-02-28T00:04:03,42.805,6.029,-0.022,-0.083,0.019,107.0,107.0,105.0,13.3,1505.2,324.2,-0.8,1.8,2470.326,13.28,0.085,194.8
2021-02-28T00:07:03,42.805,6.029,-0.031,-0.074,-0.006,109.0,107.0,103.0,13.4,1505.2,323.6,-0.7,1.8,2470.303,13.28,0.08,202.7
2021-02-28T00:10:03,42.805,6.029,-0.024,-0.074,0.013,107.0,108.0,105.0,13.3,1505.2,327.9,-0.8,1.8,2470.298,13.28,0.077,198.0
2021-02-28T00:13:03,42.805,6.029,-0.017,-0.079,-0.002,108.0,108.0,104.0,13.4,1505.2,324.0,-0.8,1.8,2470.284,13.28,0.08,192.1
2021-02-28T00:16:03,42.805,6.029,-0.01,-0.091,-0.008,108.0,107.0,105.0,13.3,1505.2,323.5,-0.8,1.9,2470.29,13.28,0.091,186.3
2021-02-28T00:19:03,42.805,6.029,-0.044,-0.069,0.012,108.0,108.0,105.0,13.3,1505.2,325.7,-0.8,1.8,2470.285,13.28,0.081,212.5
2021-02-28T00:22:03,42.805,6.029,-0.038,-0.085,-0.044,108.0,108.0,104.0,13.3,1505.2,326.8,-0.8,1.8,2470.295,13.28,0.093,204.1
2021-02-28T00:25:03,42.805,6.029,-0.024,-0.078,-0.004,109.0,107.0,105.0,13.4,1505.2,324.4,-0.7,1.8,2470.276,13.28,0.081,197.1
2021-02-28T00:28:03,42.805,6.029,-0.026,-0.098,-0.033,109.0,107.0,104.0,13.4,1505.2,324.8,-0.8,1.8,2470.314,13.28,0.101,194.9
2021-02-28T00:31:03,42.805,6.029,-0.035,-0.074,-0.005,107.0,107.0,105.0,13.3,1505.2,323.6,-0.7,1.8,2470.26,13.28,0.081,205.3
2021-02-28T00:34:03,42.805,6.029,-0.023,-0.062,-0.008,108.0,107.0,105.0,13.4,1505.2,326.6,-0.8,1.8,2470.263,13.28,0.066,200.4
2021-02-28T00:37:03,42.805,6.029,-0.006,-0.097,-0.01,107.0,107.0,106.0,13.4,1505.2,324.0,-0.7,1.8,2470.255,13.28,0.097,183.5
2021-02-28T00:40:03,42.805,6.029,-0.02,-0.093,-0.028,108.0,107.0,105.0,13.3,1505.2,324.9,-0.7,1.8,2470.278,13.28,0.095,192.1
2021-02-28T00:43:03,42.805,6.029,-0.051,-0.081,-0.01,108.0,107.0,103.0,13.3,1505.2,326.9,-0.8,1.9,2470.264,13.28,0.095,212.2
2021-02-28T00:46:03,42.805,6.029,-0.036,-0.081,-0.027,108.0,107.0,105.0,13.4,1505.2,326.4,-0.8,1.8,2470.287,13.28,0.088,204.0
2021-02-28T00:49:03,42.805,6.029,-0.005,-0.069,-0.001,108.0,107.0,104.0,13.4,1505.2,326.8,-0.7,1.8,2470.259,13.28,0.069,184.1
2021-02-28T00:52:03,42.805,6.029,-0.021,-0.09,0.023,108.0,108.0,105.0,13.3,1505.2,323.2,-0.7,1.8,2470.253,13.28,0.092,193.1
2021-02-28T00:55:03,42.805,6.029,-0.028,-0.089,0.0,108.0,106.0,105.0,13.3,1505.2,325.8,-0.7,1.8,2470.249,13.28,0.093,197.5
2021-02-28T00:58:03,42.805,6.029,-0.031,-0.083,-0.024,108.0,107.0,105.0,13.4,1505.2,324.8,-0.7,1.8,2470.249,13.28,0.088,200.5
2021-02-28T01:04:03,42.805,6.029,-0.035,-0.087,-0.03,108.0,106.0,105.0,13.3,1505.2,328.1,-0.7,1.8,2470.285,13.28,0.093,201.9
2021-02-28T01:07:03,42.805,6.029,-0.043,-0.085,-0.028,107.0,107.0,104.0,13.4,1505.2,328.5,-0.8,1.8,2470.271,13.28,0.095,206.8
2021-02-28T01:10:03,42.805,6.029,-0.029,-0.089,-0.016,109.0,107.0,104.0,13.3,1505.2,328.0,-0.7,1.8,2470.26,13.28,0.093,198.0
2021-02-28T01:13:03,42.805,6.029,-0.02,-0.064,0.011,109.0,106.0,105.0,13.4,1505.2,325.0,-0.7,1.8,2470.272,13.28,0.067,197.4
2021-02-28T01:16:03,42.805,6.029,-0.027,-0.071,0.019,108.0,108.0,105.0,13.3,1505.2,323.5,-0.8,1.8,2470.263,13.28,0.075,200.8
2021-02-28T01:19:03,42.805,6.029,-0.021,-0.083,0.008,107.0,108.0,105.0,13.4,1505.2,328.0,-0.7,1.8,2470.305,13.28,0.085,194.2
2021-02-28T01:22:03,42.805,6.029,-0.029,-0.096,0.003,109.0,107.0,104.0,13.4,1505.2,326.8,-0.8,1.8,2470.225,13.28,0.1,196.8
2021-02-28T01:25:03,42.805,6.029,-0.002,-0.063,0.026,108.0,107.0,104.0,13.3,1505.2,327.5,-0.7,1.8,2470.229,13.28,0.063,181.8
2021-02-28T01:28:03,42.805,6.029,-0.032,-0.082,-0.003,108.0,107.0,105.0,13.3,1505.2,327.5,-0.7,1.9,2470.26,13.28,0.088,201.3
2021-02-28T01:31:03,42.805,6.029,-0.04,-0.078,-0.016,108.0,107.0,105.0,13.4,1505.2,324.6,-0.7,1.8,2470.239,13.28,0.087,207.1
2021-02-28T01:34:03,42.805,6.029,-0.021,-0.099,-0.023,108.0,107.0,105.0,13.3,1505.2,323.2,-0.7,1.8,2470.215,13.28,0.101,192.0
2021-02-28T01:37:03,42.805,6.029,-0.011,-0.086,-0.007,108.0,108.0,104.0,13.4,1505.2,327.3,-0.8,1.8,2470.236,13.28,0.086,187.3
2021-02-28T01:40:03,42.805,6.029,-0.034,-0.104,-0.018,107.0,107.0,104.0,13.3,1505.2,326.5,-0.8,1.8,2470.238,13.28,0.109,198.1
2021-02-28T01:43:03,42.805,6.029,-0.024,-0.096,0.003,107.0,107.0,105.0,13.4,1505.2,323.7,-0.8,1.8,2470.215,13.28,0.098,194.0
2021-02-28T01:46:03,42.805,6.029,-0.016,-0.086,-0.014,109.0,107.0,105.0,13.3,1505.2,326.6,-0.7,1.8,2470.219,13.28,0.087,190.5
2021-02-28T01:49:03,42.805,6.029,-0.037,-0.104,-0.037,108.0,107.0,104.0,13.4,1505.2,326.4,-0.8,1.8,2470.223,13.28,0.11,199.6
2021-02-28T01:52:03,42.805,6.029,-0.01,-0.095,-0.006,107.0,107.0,104.0,13.4,1505.2,327.4,-0.8,1.8,2470.194,13.28,0.095,186.0
2021-02-28T01:55:03,42.805,6.029,-0.01,-0.098,-0.035,107.0,108.0,105.0,13.4,1505.2,324.1,-0.8,1.8,2470.241,13.28,0.098,185.8
2021-02-28T01:58:03,42.805,6.029,0.006,-0.092,-0.004,109.0,106.0,105.0,13.4,1505.2,323.2,-0.7,1.8,2470.233,13.28,0.092,176.3
2021-02-28T02:04:03,42.805,6.029,-0.01,-0.087,-0.019,107.0,108.0,105.0,13.3,1505.2,323.0,-0.8,1.8,2470.292,13.28,0.087,186.6
2021-02-28T02:07:03,42.805,6.029,-0.026,-0.071,-0.024,108.0,107.0,105.0,13.4,1505.2,325.4,-0.8,1.8,2470.26,13.28,0.075,200.1
2021-02-28T02:10:03,42.805,6.029,-0.008,-0.056,0.023,108.0,108.0,106.0,13.3,1505.2,328.5,-0.8,1.8,2470.269,13.28,0.056,188.1
2021-02-28T02:13:03,42.805,6.029,-0.034,-0.089,0.013,107.0,107.0,106.0,13.3,1505.2,324.8,-0.8,1.9,2470.251,13.28,0.095,200.9
2021-02-28T02:16:03,42.805,6.029,-0.029,-0.076,-0.001,109.0,105.0,105.0,13.4,1505.2,325.1,-0.8,1.9,2470.247,13.28,0.081,200.9
2021-02-28T02:19:03,42.805,6.029,-0.024,-0.067,-0.035,107.0,107.0,105.0,13.3,1505.2,327.1,-0.7,1.8,2470.251,13.28,0.071,199.7
2021-02-28T02:22:03,42.805,6.029,-0.021,-0.08,-0.02,108.0,107.0,104.0,13.4,1505.2,325.2,-0.7,1.8,2470.25,13.28,0.082,194.7
2021-02-28T02:25:03,42.805,6.029,-0.012,-0.084,0.005,108.0,107.0,105.0,13.4,1505.2,326.9,-0.8,1.8,2470.22,13.28,0.084,188.1
2021-02-28T02:28:03,42.805,6.029,-0.064,-0.083,-0.013,107.0,107.0,105.0,13.3,1505.2,325.8,-0.7,1.8,2470.228,13.28,0.104,217.6
2021-02-28T02:31:03,42.805,6.029,-0.032,-0.088,-0.027,108.0,107.0,104.0,13.3,1505.2,324.8,-0.7,1.8,2470.233,13.28,0.093,200.0
2021-02-28T02:34:03,42.805,6.029,-0.005,-0.088,-0.02,108.0,107.0,106.0,13.3,1505.2,326.1,-0.8,1.8,2470.256,13.28,0.088,183.2
2021-02-28T02:37:03,42.805,6.029,-0.024,-0.102,-0.035,107.0,108.0,104.0,13.4,1505.2,327.8,-0.7,1.8,2470.211,13.28,0.104,193.2
2021-02-28T02:40:03,42.805,6.029,-0.022,-0.068,-0.03,108.0,107.0,104.0,13.4,1505.2,326.7,-0.8,1.8,2470.25,13.28,0.071,197.9
2021-02-28T02:43:03,42.805,6.029,-0.016,-0.073,0.012,108.0,107.0,105.0,13.4,1505.2,324.3,-0.8,1.8,2470.232,13.28,0.074,192.4
2021-02-28T02:46:03,42.805,6.029,-0.009,-0.094,-0.007,109.0,108.0,105.0,13.4,1505.2,326.6,-0.7,1.8,2470.231,13.28,0.094,185.5
2021-02-28T02:49:03,42.805,6.029,-0.023,-0.095,-0.02,107.0,107.0,106.0,13.4,1505.2,323.6,-0.8,1.8,2470.245,13.28,0.097,193.6
2021-02-28T02:52:03,42.805,6.029,-0.006,-0.059,-0.018,108.0,107.0,104.0,13.3,1505.2,325.0,-0.8,1.8,2470.244,13.28,0.059,185.8
2021-02-28T02:55:03,42.805,6.029,-0.013,-0.087,-0.001,108.0,108.0,104.0,13.4,1505.2,327.2,-0.7,1.8,2470.276,13.28,0.087,188.5
2021-02-28T02:58:03,42.805,6.029,-0.012,-0.078,0.003,108.0,108.0,104.0,13.4,1505.2,325.1,-0.7,1.8,2470.247,13.28,0.078,188.7
2021-02-28T03:04:03,42.805,6.029,-0.02,-0.084,-0.025,108.0,107.0,104.0,13.4,1505.2,326.5,-0.8,1.8,2470.232,13.28,0.086,193.4
2021-02-28T03:07:03,42.805,6.029,-0.03,-0.076,-0.039,108.0,106.0,104.0,13.4,1505.2,325.0,-0.8,1.8,2470.27,13.28,0.081,201.5
2021-02-28T03:10:03,42.805,6.029,-0.011,-0.091,-0.027,108.0,109.0,104.0,13.4,1505.2,327.2,-0.8,1.8,2470.274,13.28,0.091,186.9
2021-02-28T03:13:03,42.805,6.029,-0.033,-0.097,-0.011,109.0,108.0,104.0,13.4,1505.2,328.2,-0.7,1.8,2470.276,13.28,0.102,198.8
2021-02-28T03:16:03,42.805,6.029,-0.013,-0.096,-0.048,109.0,107.0,104.0,13.4,1505.2,328.4,-0.8,1.8,2470.268,13.28,0.096,187.7
2021-02-28T03:19:03,42.805,6.029,-0.026,-0.096,-0.014,108.0,108.0,105.0,13.3,1505.2,328.2,-0.7,1.8,2470.265,13.28,0.099,195.2
2021-02-28T03:22:03,42.805,6.029,-0.036,-0.097,-0.008,109.0,108.0,104.0,13.4,1505.2,328.0,-0.7,1.8,2470.245,13.28,0.103,200.4
2021-02-28T03:25:03,42.805,6.029,-0.03,-0.082,-0.025,108.0,108.0,105.0,13.4,1505.2,326.8,-0.8,1.8,2470.269,13.28,0.087,200.1
2021-02-28T03:28:03,42.805,6.029,-0.027,-0.09,0.005,109.0,107.0,104.0,13.4,1505.2,327.9,-0.7,1.8,2470.263,13.28,0.093,196.7
2021-02-28T03:31:03,42.805,6.029,-0.015,-0.076,-0.023,108.0,107.0,104.0,13.4,1505.2,324.4,-0.7,1.8,2470.277,13.28,0.077,191.2
2021-02-28T03:34:03,42.805,6.029,-0.03,-0.094,-0.03,109.0,107.0,104.0,13.4,1505.2,326.4,-0.7,1.8,2470.289,13.28,0.098,197.7
2021-02-28T03:37:03,42.805,6.029,-0.006,-0.079,-0.023,107.0,108.0,104.0,13.3,1505.2,323.4,-0.7,1.8,2470.251,13.28,0.079,184.3
2021-02-28T03:40:03,42.805,6.029,-0.032,-0.091,-0.011,109.0,108.0,104.0,13.3,1505.2,326.3,-0.7,1.8,2470.285,13.28,0.096,199.4
2021-02-28T03:43:03,42.805,6.029,-0.036,-0.09,-0.017,108.0,107.0,106.0,13.4,1505.2,325.4,-0.7,1.8,2470.269,13.28,0.096,201.8
2021-02-28T03:46:03,42.805,6.029,-0.016,-0.095,-0.022,108.0,107.0,104.0,13.4,1505.2,324.5,-0.8,1.8,2470.228,13.28,0.096,189.6
2021-02-28T03:49:03,42.805,6.029,0.0,-0.07,-0.013,107.0,108.0,106.0,13.3,1505.2,324.9,-0.7,1.8,2470.285,13.28,0.069,180.0
2021-02-28T03:52:03,42.805,6.029,-0.011,-0.083,-0.015,108.0,108.0,105.0,13.4,1505.2,324.9,-0.7,1.8,2470.259,13.28,0.083,187.5
2021-02-28T03:55:03,42.805,6.029,-0.022,-0.107,-0.026,110.0,105.0,105.0,13.4,1505.2,326.8,-0.8,1.8,2470.236,13.28,0.109,191.6
2021-02-28T03:58:03,42.805,6.029,-0.032,-0.093,0.0,109.0,107.0,105.0,13.4,1505.2,327.7,-0.8,1.9,2470.29,13.28,0.098,199.0
2021-02-28T04:04:03,42.805,6.029,-0.025,-0.085,-0.016,108.0,108.0,105.0,13.3,1505.2,328.5,-0.8,1.8,2470.319,13.28,0.088,196.4
2021-02-28T04:07:03,42.805,6.029,-0.025,-0.066,-0.033,108.0,108.0,106.0,13.4,1505.2,325.4,-0.8,1.9,2470.338,13.28,0.07,200.7
2021-02-28T04:10:03,42.805,6.029,-0.022,-0.1,-0.01,109.0,107.0,104.0,13.4,1505.2,328.4,-0.8,1.8,2470.322,13.28,0.102,192.4
2021-02-28T04:13:03,42.805,6.029,-0.011,-0.1,-0.01,109.0,108.0,103.0,13.4,1505.2,326.9,-0.8,1.8,2470.366,13.28,0.1,186.3
2021-02-28T04:16:03,42.805,6.029,-0.024,-0.084,-0.015,108.0,108.0,105.0,13.4,1505.2,324.8,-0.8,1.9,2470.317,13.28,0.087,195.9
2021-02-28T04:19:03,42.805,6.029,-0.034,-0.096,-0.023,107.0,106.0,104.0,13.4,1505.2,325.5,-0.8,1.8,2470.336,13.28,0.101,199.5
2021-02-28T04:22:03,42.805,6.029,-0.021,-0.075,-0.035,108.0,108.0,105.0,13.3,1505.2,323.7,-0.7,1.8,2470.329,13.28,0.077,195.6
2021-02-28T04:25:03,42.805,6.029,-0.04,-0.074,-0.016,108.0,107.0,104.0,13.4,1505.2,327.7,-0.7,1.8,2470.343,13.28,0.084,208.4
2021-02-28T04:28:03,42.805,6.029,-0.028,-0.062,-0.014,108.0,107.0,104.0,13.4,1505.2,324.8,-0.8,1.8,2470.333,13.28,0.068,204.3
2021-02-28T04:31:03,42.805,6.029,-0.028,-0.078,-0.019,108.0,109.0,105.0,13.4,1505.2,323.4,-0.7,1.8,2470.293,13.28,0.082,199.7
2021-02-28T04:34:03,42.805,6.029,-0.038,-0.104,-0.031,109.0,107.0,104.0,13.4,1505.2,326.7,-0.8,1.8,2470.306,13.28,0.11,200.1
2021-02-28T04:37:03,42.805,6.029,-0.039,-0.076,-0.014,108.0,108.0,104.0,13.4,1505.2,324.3,-0.7,1.8,2470.34,13.28,0.085,207.2
2021-02-28T04:40:03,42.805,6.029,-0.035,-0.083,-0.04,109.0,107.0,106.0,13.4,1505.2,323.4,-0.8,1.8,2470.338,13.28,0.09,202.9
2021-02-28T04:43:03,42.805,6.029,-0.024,-0.092,-0.007,109.0,107.0,104.0,13.4,1505.2,328.6,-0.7,1.8,2470.333,13.28,0.095,194.6
2021-02-28T04:46:03,42.805,6.029,-0.032,-0.086,-0.01,109.0,107.0,105.0,13.4,1505.2,325.5,-0.8,1.8,2470.309,13.28,0.091,200.4
2021-02-28T04:49:03,42.805,6.029,-0.048,-0.072,-0.009,107.0,108.0,104.0,13.3,1505.2,324.3,-0.7,1.8,2470.341,13.28,0.086,213.7
2021-02-28T04:52:03,42.805,6.029,-0.046,-0.088,-0.015,109.0,108.0,105.0,13.4,1505.2,324.7,-0.7,1.8,2470.358,13.28,0.099,207.6
2021-02-28T04:55:03,42.805,6.029,-0.032,-0.089,0.015,108.0,108.0,105.0,13.4,1505.2,326.4,-0.8,1.8,2470.314,13.28,0.094,199.8
2021-02-28T04:58:03,42.805,6.029,-0.038,-0.089,-0.026,108.0,107.0,105.0,13.4,1505.2,328.1,-0.7,1.8,2470.355,13.28,0.096,203.1
2021-02-28T05:04:03,42.805,6.029,-0.048,-0.068,-0.003,109.0,108.0,104.0,13.4,1505.2,327.8,-0.8,1.8,2470.371,13.28,0.083,215.2
2021-02-28T05:07:03,42.805,6.029,-0.034,-0.063,-0.014,107.0,109.0,106.0,13.4,1505.2,327.1,-0.7,1.8,2470.368,13.28,0.071,208.4
2021-02-28T05:10:03,42.805,6.029,-0.034,-0.084,-0.026,108.0,109.0,105.0,13.3,1505.2,325.4,-0.8,1.8,2470.434,13.28,0.09,202.0
2021-02-28T05:13:03,42.805,6.029,-0.043,-0.096,-0.012,109.0,107.0,105.0,13.3,1505.2,325.1,-0.8,1.8,2470.385,13.28,0.105,204.1
2021-02-28T05:16:03,42.805,6.029,-0.039,-0.064,0.009,110.0,108.0,105.0,13.4,1505.2,325.1,-0.8,1.8,2470.418,13.28,0.074,211.4
2021-02-28T05:19:03,42.805,6.029,-0.032,-0.079,0.008,108.0,108.0,106.0,13.3,1505.2,325.9,-0.7,1.9,2470.4,13.28,0.085,202.0
2021-02-28T05:22:03,42.805,6.029,-0.045,-0.077,0.005,108.0,108.0,105.0,13.4,1505.2,326.2,-0.8,1.8,2470.406,13.28,0.089,210.3
2021-02-28T05:25:03,42.805,6.029,-0.029,-0.088,-0.048,109.0,108.0,104.0,13.3,1505.2,323.2,-0.8,1.8,2470.398,13.28,0.092,198.2
2021-02-28T05:28:03,42.805,6.029,-0.042,-0.077,-0.02,108.0,108.0,106.0,13.4,1505.2,325.4,-0.8,1.8,2470.423,13.28,0.087,208.6
2021-02-28T05:31:03,42.805,6.029,-0.018,-0.066,-0.011,109.0,108.0,105.0,13.3,1505.2,323.4,-0.7,1.8,2470.373,13.28,0.068,195.3
2021-02-28T05:34:03,42.805,6.029,-0.051,-0.078,-0.026,107.0,108.0,105.0,13.4,1505.2,324.3,-0.8,1.8,2470.395,13.28,0.093,213.2
2021-02-28T05:37:03,42.805,6.029,-0.036,-0.072,-0.031,108.0,108.0,106.0,13.4,1505.2,328.4,-0.8,1.8,2470.412,13.28,0.08,206.6
2021-02-28T05:40:03,42.805,6.029,-0.018,-0.092,0.003,109.0,107.0,105.0,13.3,1505.2,323.0,-0.8,1.8,2470.392,13.28,0.093,191.1
2021-02-28T05:43:03,42.805,6.029,-0.051,-0.074,0.014,108.0,107.0,104.0,13.4,1505.2,326.5,-0.8,1.8,2470.416,13.28,0.089,214.6
2021-02-28T05:46:03,42.805,6.029,-0.032,-0.073,-0.024,109.0,108.0,106.0,13.4,1505.2,326.3,-0.7,1.8,2470.433,13.28,0.079,203.7
2021-02-28T05:49:03,42.805,6.029,-0.035,-0.069,-0.013,109.0,108.0,105.0,13.4,1505.2,326.4,-0.7,1.8,2470.45,13.28,0.077,206.9
2021-02-28T05:52:03,42.805,6.029,-0.038,-0.081,0.0,110.0,107.0,105.0,13.4,1505.2,327.9,-0.8,1.8,2470.401,13.28,0.089,205.1
2021-02-28T05:55:03,42.805,6.029,-0.037,-0.061,0.003,107.0,108.0,105.0,13.4,1505.2,324.0,-0.8,1.9,2470.449,13.28,0.071,211.2
2021-02-28T05:58:03,42.805,6.029,-0.041,-0.084,0.011,108.0,109.0,105.0,13.4,1505.2,323.5,-0.8,1.9,2470.442,13.28,0.093,206.0
2021-02-28T06:04:03,42.805,6.029,-0.03,-0.072,-0.004,109.0,108.0,105.0,13.4,1505.2,326.1,-0.8,1.8,2470.498,13.28,0.077,202.6
2021-02-28T06:07:03,42.805,6.029,-0.046,-0.069,-0.037,109.0,108.0,105.0,13.4,1505.2,328.4,-0.7,1.8,2470.447,13.28,0.082,213.7
2021-02-28T06:10:03,42.805,6.029,-0.049,-0.078,-0.02,110.0,108.0,106.0,13.4,1505.2,325.0,-0.8,1.8,2470.444,13.28,0.092,212.1
2021-02-28T06:13:03,42.805,6.029,-0.045,-0.075,-0.018,109.0,109.0,104.0,13.3,1505.2,323.9,-0.8,1.8,2470.477,13.28,0.087,211.0
2021-02-28T06:16:03,42.805,6.029,-0.046,-0.074,-0.001,109.0,107.0,105.0,13.4,1505.2,326.7,-0.8,1.8,2470.463,13.28,0.087,211.9
2021-02-28T06:19:03,42.805,6.029,-0.038,-0.065,0.005,110.0,108.0,106.0,13.4,1505.2,326.6,-0.7,1.8,2470.449,13.28,0.075,210.3
2021-02-28T06:22:03,42.805,6.029,-0.042,-0.064,-0.031,108.0,108.0,105.0,13.4,1505.2,326.7,-0.8,1.8,2470.499,13.28,0.076,213.3
2021-02-28T06:25:03,42.805,6.029,-0.045,-0.07,-0.021,109.0,109.0,105.0,13.3,1505.2,325.7,-0.7,1.8,2470.516,13.28,0.083,212.7
2021-02-28T06:28:03,42.805,6.029,-0.036,-0.058,0.002,108.0,109.0,105.0,13.4,1505.2,324.4,-0.7,1.8,2470.496,13.28,0.068,211.8
2021-02-28T06:31:03,42.805,6.029,-0.045,-0.054,-0.019,109.0,107.0,105.0,13.4,1505.2,325.4,-0.7,1.8,2470.497,13.28,0.07,219.8
2021-02-28T06:34:03,42.805,6.029,-0.065,-0.076,-0.016,109.0,107.0,105.0,13.4,1505.2,326.6,-0.7,1.8,2470.476,13.28,0.1,220.5
2021-02-28T06:37:03,42.805,6.029,-0.091,-0.043,-0.013,109.0,109.0,105.0,13.3,1505.2,327.9,-0.7,1.8,2470.48,13.28,0.1,244.7
2021-02-28T06:40:03,42.805,6.029,-0.062,-0.066,-0.02,109.0,107.0,105.0,13.4,1505.2,327.7,-0.7,1.8,2470.503,13.28,0.09,223.2
2021-02-28T06:43:03,42.805,6.029,-0.081,-0.037,-0.002,108.0,108.0,106.0,13.4,1505.2,324.8,-0.8,1.9,2470.458,13.28,0.089,245.5
2021-02-28T06:46:03,42.805,6.029,-0.073,-0.072,-0.038,108.0,107.0,106.0,13.4,1505.2,324.7,-0.8,1.8,2470.435,13.28,0.102,225.4
2021-02-28T06:49:03,42.805,6.029,-0.054,-0.078,-0.011,108.0,108.0,105.0,13.4,1505.2,323.8,-0.8,1.8,2470.546,13.28,0.094,214.7
2021-02-28T06:52:03,42.805,6.029,-0.067,-0.053,-0.002,109.0,107.0,107.0,13.4,1505.2,325.6,-0.7,1.8,2470.537,13.28,0.085,231.7
2021-02-28T06:55:03,42.805,6.029,-0.082,-0.059,-0.011,110.0,109.0,106.0,13.3,1505.2,325.5,-0.7,1.8,2470.473,13.28,0.101,234.3
2021-02-28T06:58:03,42.805,6.029,-0.101,-0.053,-0.002,109.0,110.0,106.0,13.4,1505.2,326.9,-0.7,1.8,2470.485,13.28,0.114,242.3
2021-02-28T07:04:03,42.805,6.029,-0.085,-0.057,0.004,110.0,108.0,106.0,13.3,1505.2,323.3,-0.7,1.8,2470.539,13.28,0.102,236.2
2021-02-28T07:07:03,42.805,6.029,-0.045,-0.033,-0.019,109.0,108.0,107.0,13.3,1505.2,325.7,-0.7,1.8,2470.49,13.28,0.055,233.7
2021-02-28T07:10:03,42.805,6.029,-0.067,-0.052,-0.009,109.0,108.0,106.0,13.4,1505.2,326.0,-0.8,1.9,2470.492,13.28,0.084,232.2
2021-02-28T07:13:03,42.805,6.029,-0.072,-0.036,-0.018,109.0,110.0,105.0,13.4,1505.2,324.0,-0.8,1.8,2470.538,13.28,0.08,243.4
2021-02-28T07:16:03,42.805,6.029,-0.077,-0.045,-0.024,108.0,108.0,105.0,13.4,1505.2,323.4,-0.8,1.8,2470.509,13.28,0.089,239.7
2021-02-28T07:19:03,42.805,6.029,-0.083,-0.049,-0.027,109.0,108.0,106.0,13.4,1505.2,325.5,-0.8,1.8,2470.533,13.28,0.096,239.4
2021-02-28T07:22:03,42.805,6.029,-0.084,-0.035,0.007,107.0,108.0,106.0,13.3,1505.2,326.4,-0.8,1.8,2470.482,13.28,0.091,247.4
2021-02-28T07:25:03,42.805,6.029,-0.062,-0.058,-0.023,108.0,108.0,106.0,13.4,1505.2,326.3,-0.7,1.8,2470.534,13.28,0.084,226.9
2021-02-28T07:28:03,42.805,6.029,-0.076,-0.037,0.019,108.0,109.0,105.0,13.3,1505.2,327.3,-0.8,1.8,2470.547,13.28,0.084,244.0
2021-02-28T07:31:03,42.805,6.029,-0.061,-0.035,-0.019,109.0,109.0,105.0,13.4,1505.2,326.9,-0.8,1.8,2470.536,13.28,0.07,240.2
2021-02-28T07:34:03,42.805,6.029,-0.059,-0.032,0.017,109.0,109.0,105.0,13.4,1505.2,326.5,-0.7,1.8,2470.548,13.28,0.067,241.5
2021-02-28T07:37:03,42.805,6.029,-0.087,-0.046,0.014,108.0,109.0,106.0,13.4,1505.2,327.3,-0.8,1.8,2470.49,13.28,0.098,242.1
2021-02-28T07:40:03,42.805,6.029,-0.09,-0.036,-0.016,109.0,109.0,105.0,13.4,1505.2,327.0,-0.8,1.8,2470.528,13.28,0.096,248.2
2021-02-28T07:43:03,42.805,6.029,-0.08,-0.035,-0.021,109.0,109.0,106.0,13.4,1505.2,328.6,-0.8,1.8,2470.511,13.28,0.087,246.4
2021-02-28T07:46:03,42.805,6.029,-0.063,-0.033,-0.01,109.0,109.0,106.0,13.4,1505.2,325.5,-0.7,1.8,2470.495,13.28,0.071,242.4
2021-02-28T07:49:03,42.805,6.029,-0.098,-0.015,-0.033,110.0,108.0,105.0,13.3,1505.2,327.1,-0.8,1.8,2470.537,13.28,0.099,261.3
2021-02-28T07:52:03,42.805,6.029,-0.092,-0.027,-0.029,109.0,108.0,106.0,13.4,1505.2,324.8,-0.7,1.8,2470.524,13.28,0.095,253.6
2021-02-28T07:55:03,42.805,6.029,-0.077,-0.021,-0.026,109.0,109.0,106.0,13.4,1505.2,327.0,-0.8,1.8,2470.55,13.28,0.079,254.7
2021-02-28T07:58:03,42.805,6.029,-0.098,-0.021,-0.013,109.0,109.0,106.0,13.3,1505.2,324.2,-0.8,1.8,2470.544,13.28,0.1,257.9
2021-02-28T08:04:03,42.805,6.029,-0.065,-0.047,-0.007,109.0,109.0,105.0,13.4,1505.2,325.8,-0.7,1.8,2470.538,13.28,0.08,234.1
2021-02-28T08:07:03,42.805,6.029,-0.083,-0.048,-0.015,109.0,109.0,106.0,13.4,1505.2,326.1,-0.8,1.8,2470.535,13.28,0.095,240.0
2021-02-28T08:10:03,42.805,6.029,-0.082,-0.024,0.003,110.0,108.0,106.0,13.4,1505.2,324.4,-0.8,1.8,2470.563,13.28,0.085,253.7
2021-02-28T08:13:03,42.805,6.029,-0.071,-0.028,-0.002,110.0,107.0,106.0,13.4,1505.2,327.7,-0.8,1.8,2470.54,13.28,0.076,248.5
2021-02-28T08:16:03,42.805,6.029,-0.098,-0.034,-0.006,110.0,109.0,105.0,13.4,1505.2,325.3,-0.8,1.8,2470.547,13.28,0.103,250.9
2021-02-28T08:19:03,42.805,6.029,-0.067,-0.019,0.023,109.0,108.0,106.0,13.3,1505.2,322.6,-0.7,1.8,2470.484,13.28,0.069,254.2
2021-02-28T08:22:03,42.805,6.029,-0.086,-0.025,-0.002,109.0,109.0,106.0,13.4,1505.2,323.6,-0.8,1.8,2470.532,13.28,0.089,253.8
2021-02-28T08:25:03,42.805,6.029,-0.059,-0.016,-0.039,109.0,108.0,106.0,13.4,1505.2,323.6,-0.8,1.8,2470.536,13.28,0.061,254.8
2021-02-28T08:28:03,42.805,6.029,-0.081,-0.014,-0.012,109.0,108.0,106.0,13.4,1505.2,327.1,-0.8,1.8,2470.555,13.28,0.082,260.2
2021-02-28T08:31:03,42.805,6.029,-0.08,-0.014,-0.012,110.0,109.0,105.0,13.4,1505.2,325.8,-0.8,1.8,2470.528,13.28,0.081,260.1
2021-02-28T08:34:03,42.805,6.029,-0.067,-0.022,-0.026,109.0,109.0,105.0,13.4,1505.2,326.6,-0.7,1.8,2470.518,13.28,0.07,251.8
2021-02-28T08:37:03,42.805,6.029,-0.125,-0.016,-0.035,108.0,108.0,105.0,13.4,1505.2,325.3,-0.7,1.8,2470.532,13.28,0.126,262.7
2021-02-28T08:40:03,42.805,6.029,-0.092,-0.022,-0.006,109.0,108.0,105.0,13.4,1505.2,324.3,-0.8,1.8,2470.52,13.28,0.094,256.6
2021-02-28T08:43:03,42.805,6.029,-0.087,-0.015,-0.006,109.0,109.0,104.0,13.4,1505.2,328.2,-0.7,1.8,2470.518,13.28,0.088,260.2
2021-02-28T08:46:03,42.805,6.029,-0.093,-0.019,0.002,108.0,109.0,106.0,13.4,1505.2,325.5,-0.8,1.8,2470.514,13.28,0.094,258.5
2021-02-28T08:49:03,42.805,6.029,-0.098,0.004,-0.012,109.0,108.0,106.0,13.3,1505.2,324.0,-0.7,1.8,2470.551,13.28,0.098,272.3
2021-02-28T08:52:03,42.805,6.029,-0.075,-0.018,-0.007,109.0,109.0,107.0,13.4,1505.2,325.2,-0.8,1.8,2470.535,13.28,0.077,256.5
2021-02-28T08:55:03,42.805,6.029,-0.084,-0.001,0.008,109.0,108.0,106.0,13.3,1505.2,324.5,-0.7,1.8,2470.521,13.28,0.084,269.3
2021-02-28T08:58:03,42.805,6.029,-0.09,-0.018,0.006,110.0,108.0,106.0,13.4,1505.2,327.0,-0.7,1.8,2470.504,13.28,0.091,258.7
2021-02-28T09:04:03,42.805,6.029,-0.08,-0.01,0.001,109.0,108.0,105.0,13.3,1505.2,324.9,-0.8,1.8,2470.587,13.28,0.08,262.9
2021-02-28T09:07:03,42.805,6.029,-0.095,-0.002,-0.021,110.0,110.0,106.0,13.4,1505.2,325.7,-0.8,1.8,2470.513,13.28,0.095,268.8
2021-02-28T09:10:03,42.805,6.029,-0.079,-0.022,-0.016,109.0,108.0,106.0,13.4,1505.2,324.0,-0.7,1.8,2470.534,13.28,0.082,254.4
2021-02-28T09:13:03,42.805,6.029,-0.102,0.01,-0.025,110.0,108.0,106.0,13.4,1505.2,328.4,-0.7,1.8,2470.529,13.28,0.102,275.6
2021-02-28T09:16:03,42.805,6.029,-0.092,0.0,-0.028,109.0,109.0,105.0,13.3,1505.2,324.8,-0.7,1.9,2470.503,13.28,0.092,270.0
2021-02-28T09:19:03,42.805,6.029,-0.074,0.018,-0.021,109.0,108.0,106.0,13.4,1505.2,326.4,-0.7,1.8,2470.529,13.28,0.076,283.7
2021-02-28T09:22:03,42.805,6.029,-0.089,-0.006,0.005,109.0,109.0,106.0,13.3,1505.2,328.0,-0.8,1.9,2470.517,13.28,0.089,266.1
2021-02-28T09:25:03,42.805,6.029,-0.086,-0.01,0.001,109.0,107.0,106.0,13.4,1505.2,326.5,-0.8,1.8,2470.529,13.28,0.086,263.4
2021-02-28T09:28:03,42.805,6.029,-0.075,0.015,-0.025,109.0,107.0,107.0,13.4,1505.2,323.7,-0.8,1.8,2470.552,13.28,0.076,281.3
2021-02-28T09:31:03,42.805,6.029,-0.083,0.001,-0.02,109.0,109.0,107.0,13.4,1505.2,323.7,-0.8,1.8,2470.538,13.28,0.083,270.7
2021-02-28T09:34:03,42.805,6.029,-0.065,-0.012,0.002,109.0,107.0,104.0,13.4,1505.2,323.0,-0.7,1.8,2470.526,13.28,0.066,259.5
2021-02-28T09:37:03,42.805,6.029,-0.062,0.0,-0.022,109.0,108.0,105.0,13.4,1505.2,323.2,-0.7,1.8,2470.512,13.28,0.061,270.0
2021-02-28T09:40:03,42.805,6.029,-0.086,0.003,-0.018,110.0,109.0,106.0,13.4,1505.2,327.3,-0.7,1.8,2470.501,13.28,0.086,272.0
2021-02-28T09:43:03,42.805,6.029,-0.079,-0.016,-0.027,109.0,108.0,105.0,13.4,1505.2,325.4,-0.7,1.8,2470.508,13.28,0.08,258.6
2021-02-28T09:46:03,42.805,6.029,-0.065,0.009,-0.018,109.0,108.0,106.0,13.4,1505.2,324.0,-0.8,1.8,2470.523,13.28,0.065,277.9
2021-02-28T09:49:03,42.805,6.029,-0.071,0.006,-0.035,109.0,108.0,104.0,13.4,1505.2,328.1,-0.8,1.8,2470.485,13.28,0.071,274.8